Regional Weather Roundup
Issued by NWS Newport/Morehead, NC

Current Version | Previous Version | Graphics & Text | Print | Product List | Glossary On
Versions: 1 2 3 4 5 6 7 8 9 10 11 12 13 14 15 16 17 18 19 20 21 22 23 24 25 26 27 28 29 30 31 32 33 34 35 36 37 38 39 40 41 42 43 44 45 46 47 48 49 50
000 ASUS42 KMHX 250222 RWRMHX WEATHER ROUNDUP FOR EASTERN NORTH CAROLINA NATIONAL WEATHER SERVICE NEWPORT/MOREHEAD CITY NC 900 PM EST WED DEC 24 2014 NOTE: "FAIR" INDICATES FEW OR NO CLOUDS BELOW 12,000 FEET WITH NO SIGNIFICANT WEATHER AND/OR OBSTRUCTIONS TO VISIBILITY NCZ015>017-031-032-045>047-102-103-250300- NORTH COAST CITY SKY/WX TMP DP RH WIND PRES REMARKS EDENTON MOCLDY 64 61 90 S13 29.73F ELIZABETH CITY MOCLDY 69 61 75 S13G21 29.73F KITTY HAWK MOCLDY 63 62 95 S7G16 29.76F MANTEO MOCLDY 59 57 94 S14 29.78F $$ NCZ045>047-081-094-103-104-250300- CENTRAL COAST CITY SKY/WX TMP DP RH WIND PRES REMARKS FRISCO MOCLDY 59 59 100 S6 29.81F FOG SWANQUARTER N/A 61 N/A N/A S13 29.74S $$ NCZ095-097-098-100-101-250300- SOUTHERN COAST CITY SKY/WX TMP DP RH WIND PRES REMARKS BEAUFORT CLOUDY 64 63 96 S7 29.79F CEDAR ISLAND N/A 64 N/A N/A SE7 29.82F JACKSONVILLE CLOUDY 65 64 97 S7 29.75F PINEY ISLAND CLOUDY 67 63 87 S7 29.78F WILMINGTON CLOUDY 66 64 93 S8 29.76F $$ NCZ011>013-027>030-043-044-078>080-089-090>093-098-250300- COASTAL PLAIN CITY SKY/WX TMP DP RH WIND PRES REMARKS AHOSKIE CLOUDY 66 62 85 S12G18 29.67F CLINTON CLOUDY 66 64 91 S6 29.72S ELIZABETHTOWN CLOUDY 66 64 94 S6 29.73S GOLDSBORO CLOUDY 67 66 97 S9 29.68F GREENVILLE CLOUDY 68 63 83 S15G21 29.73F HAVELOCK CLOUDY 66 63 90 S8 29.79F KENANSVILLE CLOUDY 65 62 89 SE3 29.73S KINSTON CLOUDY 66 63 88 S12 29.71F NEW BERN CLOUDY 67 63 87 S13 29.77F RICHLANDS CLOUDY 66 61 82 S9 29.74F ROCKY MOUNT CLOUDY 67 62 84 S12 29.68F WASHINGTON CLOUDY 66 62 87 S6 29.72F WHITEVILLE CLOUDY 66 64 90 S9 29.74S $$ AMZ130-135-150-152-154-156-158-170-250-252-270-ANZ085-086-088-633-658-670-250300- MARINE OBSERVATIONS STATION/POSITION TIME TEMP WIND PRES WAVE SWELL AIR SEA DIR/SP/G HT/PER HT/PER (UTC) (F) (DEG/KT/KT) (MB) (FT/S) (FT/S) CHESAPEAKE LIGHT 0200 57 190/ 29/ 30 1005.7 64 E VA BEACH 0200 60 53 190/ 21/ 25 1007.3 7/ 7 3/14 DUCK 0200 50 190/ 18/ 20 1006.4 2 E DUCK 0200 50 N/A 4/ 7 10 NE DUCK 0200 50 N/A 5/ 7 OREGON INLET 0200 52 170/ 13/ 15 1008.7 13E OREGON INLT 0200 51 N/A 7/ 8 2/11 HATTERAS CG 0200 55 200/ 5/ 7 1009.8 DIAMOND BUOY 0200 74 1009.9 9/ 8 17 S OCRACOKE NOT AVBL CAPE LOOKOUT 0200 62 190/ 7/ 8 1009.0 BEAUFORT LAB 0200 55 170/ 8/ 10 1007.9 30 SE NEW RIVER 0200 66 60 240/ 12/ 17 1009.1 8/ 8 7/ 8 5 SE WRIGHTSVLE NOT AVBL 225 S CAPE HAT 0147 74 71 200/ 16/ 21 1014.9 6/ 7 41 SE CHARLESTON 0200 72 74 220/ 17/ 21 1008.0 8/ 8 3/14 $$

USA.gov is the U.S. government's official web portal to all federal, state and local government web resources and services.